C/2017 K6 ( Jacques )

Japanese version
Home page
Updated on September 23, 2018

---------------------------------------------------------------------

* Profile

Discovery Date May 29, 2017
Magnitude 17.5 mag
Discoverer Cristovao Jacques (SONEAR Observatory at Oliveira)

* Pictures

* Orbital Elements

Epoch 2018 Jan. 2.0 TT = JDT 2458120.5
T 2018 Jan. 3.13776 TT                                  MPCW
q   2.0027582            (2000.0)            P               Q
z  +0.0008915      Peri.  303.83888     +0.49565853     -0.22851032
 +/-0.0000012      Node    85.05440     +0.75134608     +0.59675908
e   0.9982146      Incl.   57.25102     -0.43566236     +0.76919545
From 355 observations 2017 May 29-2018 Aug. 24, mean residual 0".5.

* Finding Charts

* Magnitudes Graph

        m1 = 8.5 + 5 log d + 12.5 log r(t - 30)

---------------------------------------------------------------------

The orbital elements are published on M.P.E.C. 2018-S50.
The charts are made with StellaNavigator Ver.10 (AstroArts).
The magnitudes graphs are made with Comet for Windows.

---------------------------------------------------------------------

Copyright(C) Seiichi Yoshida (comet@aerith.net). All rights reserved.